Weather History for KTSP - April, 2013

Change the Weather History Date:

Monday, April 1, 2013

  Actual Average Record
Temperature  
Mean Temperature 48 °F -  
Max Temperature 55 °F 57 °F 59 °F (2015)
Min Temperature 41 °F 35 °F 32 °F (2012)
Degree Days  
Heating Degree Days 17    
Moisture  
Dew Point 39 °F    
Average Humidity 76    
Maximum Humidity 100    
Minimum Humidity 47    
Precipitation  
Precipitation 0.00 in - - ()
Sea Level Pressure  
Sea Level Pressure 30.11 in    
Wind  
Wind Speed 15 mph (NW)    
Max Wind Speed 21 mph    
Max Gust Speed 29 mph    
Visibility 10 miles    
Events Rain    
Averages and records for this station are not official NWS values.
T = Trace of Precipitation, MM = Missing Value Source: NWS Daily Summary

Daily Weather History Graph

Daily Weather History Graph

Search for Another Location

Airport or City:

Trip Planner

Search our weather history database for the weather conditions in past years. The results will help you decide how hot, cold, wet, or windy it might be!

Date:

Astronomy

Apr. 01, 2013 Rise Set
Actual Time 6:40 AM PDT 7:15 PM PDT
Civil Twilight 6:14 AM PDT 7:41 PM PDT
Nautical Twilight 5:44 AM PDT 8:11 PM PDT
Astronomical Twilight 5:13 AM PDT 8:41 PM PDT
Moon 12:18 AM PDT (4/1) 10:41 AM PDT (4/1)
Length of Visible Light 13h 26m
Length of Day
12h 35m
Waning Gibbous, 66% of the Moon is Illuminated
Apr 1
Waning Gibbous
Apr 2
Last Quarter
Apr 10
New
Apr 18
First Quarter
Apr 25
Full

Hourly Weather History & Observations

Time (PDT) Temp. Windchill Dew Point Humidity Pressure Visibility Wind Dir Wind Speed Gust Speed Precip Events Conditions
12:15 AM 44.6 °F 37.8 °F 44.6 °F 100% 30.08 in 10.0 mi NW 15.0 mph - N/A   Overcast
12:35 AM 44.6 °F 37.8 °F 44.6 °F 100% 30.08 in 10.0 mi WNW 15.0 mph 21.9 mph N/A   Overcast
12:55 AM 44.6 °F 38.4 °F 44.6 °F 100% 30.08 in 9.0 mi WNW 12.7 mph 19.6 mph N/A   Overcast
1:15 AM 44.6 °F 38.4 °F 44.6 °F 100% 30.08 in 9.0 mi NW 12.7 mph - N/A   Overcast
1:35 AM 44.6 °F 38.1 °F 44.6 °F 100% 30.08 in 4.0 mi NW 13.8 mph 21.9 mph N/A Rain Light Rain
2:15 AM 42.8 °F 35.4 °F 42.8 °F 100% 30.09 in 10.0 mi NW 15.0 mph 20.7 mph N/A   Mostly Cloudy
2:35 AM 42.8 °F 35.8 °F 41.0 °F 93% 30.09 in 10.0 mi NW 13.8 mph 19.6 mph N/A   Overcast
2:55 AM 42.8 °F 36.6 °F 41.0 °F 93% 30.09 in 10.0 mi NW 11.5 mph - N/A   Overcast
3:15 AM 42.8 °F 35.1 °F 41.0 °F 93% 30.08 in 10.0 mi NW 16.1 mph 20.7 mph N/A   Overcast
3:35 AM 42.8 °F 35.8 °F 41.0 °F 93% 30.08 in 10.0 mi NW 13.8 mph 21.9 mph N/A   Mostly Cloudy
3:55 AM 41.0 °F 33.5 °F 41.0 °F 100% 30.08 in 10.0 mi NW 13.8 mph 20.7 mph N/A   Mostly Cloudy
4:15 AM 41.0 °F 34.7 °F 41.0 °F 100% 30.08 in 10.0 mi NW 10.4 mph - N/A   Overcast
4:35 AM 41.0 °F 34.3 °F 41.0 °F 100% 30.08 in 9.0 mi NW 11.5 mph - N/A   Overcast
4:55 AM 41.0 °F 33.5 °F 41.0 °F 100% 30.09 in 9.0 mi NW 13.8 mph - N/A   Overcast
5:15 AM 41.0 °F 33.5 °F 41.0 °F 100% 30.09 in 10.0 mi WNW 13.8 mph 21.9 mph N/A   Overcast
5:35 AM 41.0 °F 32.8 °F 41.0 °F 100% 30.09 in 10.0 mi NW 16.1 mph - N/A Rain Light Rain
5:55 AM 41.0 °F 32.8 °F 41.0 °F 100% 30.09 in 10.0 mi NW 16.1 mph - N/A   Overcast
6:15 AM 41.0 °F 33.9 °F 41.0 °F 100% 30.10 in 10.0 mi NW 12.7 mph - N/A   Overcast
6:35 AM 41.0 °F 33.5 °F 41.0 °F 100% 30.10 in 10.0 mi NW 13.8 mph 18.4 mph N/A   Overcast
6:55 AM 41.0 °F 33.1 °F 39.2 °F 93% 30.10 in 10.0 mi NW 15.0 mph 19.6 mph N/A   Overcast
7:15 AM 41.0 °F 33.9 °F 39.2 °F 93% 30.11 in 10.0 mi WNW 12.7 mph - N/A   Overcast
7:35 AM 41.0 °F 34.7 °F 41.0 °F 100% 30.11 in 10.0 mi NW 10.4 mph - N/A   Overcast
7:55 AM 41.0 °F 34.3 °F 41.0 °F 100% 30.12 in 9.0 mi NW 11.5 mph - N/A   Overcast
8:15 AM 41.0 °F 34.3 °F 41.0 °F 100% 30.12 in 8.0 mi NW 11.5 mph - N/A   Overcast
8:35 AM 41.0 °F 33.5 °F 41.0 °F 100% 30.13 in 9.0 mi NW 13.8 mph - N/A   Overcast
8:55 AM 42.8 °F 36.2 °F 41.0 °F 93% 30.14 in 9.0 mi WNW 12.7 mph - N/A   Overcast
9:15 AM 42.8 °F 36.2 °F 41.0 °F 93% 30.14 in 9.0 mi WNW 12.7 mph - N/A   Overcast
9:35 AM 44.6 °F 38.4 °F 41.0 °F 87% 30.14 in 10.0 mi WNW 12.7 mph - N/A   Overcast
9:55 AM 44.6 °F 38.1 °F 41.0 °F 87% 30.15 in 10.0 mi NW 13.8 mph - N/A   Overcast
10:15 AM 44.6 °F 37.4 °F 39.2 °F 81% 30.15 in 10.0 mi NW 16.1 mph 21.9 mph N/A   Overcast
10:35 AM 46.4 °F 39.5 °F 39.2 °F 76% 30.15 in 10.0 mi NW 17.3 mph 21.9 mph N/A   Overcast
10:55 AM 48.2 °F - 41.0 °F 76% 30.15 in 10.0 mi NW 16.1 mph - N/A   Overcast
11:15 AM 48.2 °F - 39.2 °F 71% 30.15 in 10.0 mi NW 15.0 mph 20.7 mph N/A   Overcast
11:35 AM 48.2 °F - 37.4 °F 66% 30.16 in 10.0 mi NW 15.0 mph 20.7 mph N/A   Overcast
11:55 AM 50.0 °F - 37.4 °F 62% 30.15 in 10.0 mi NW 15.0 mph 19.6 mph N/A   Overcast
12:15 PM 51.8 °F - 37.4 °F 58% 30.15 in 10.0 mi NW 18.4 mph 24.2 mph N/A   Overcast
12:35 PM 51.8 °F - 37.4 °F 58% 30.15 in 10.0 mi NW 17.3 mph 24.2 mph N/A   Mostly Cloudy
12:55 PM 51.8 °F - 37.4 °F 58% 30.14 in 10.0 mi NW 18.4 mph 24.2 mph N/A   Overcast
1:15 PM 53.6 °F - 37.4 °F 54% 30.14 in 10.0 mi NNW 17.3 mph 24.2 mph N/A   Overcast
1:35 PM 55.4 °F - 37.4 °F 51% 30.14 in 10.0 mi NNW 17.3 mph 23.0 mph N/A   Overcast
1:55 PM 53.6 °F - 37.4 °F 54% 30.13 in 10.0 mi NW 18.4 mph 23.0 mph N/A   Mostly Cloudy
2:15 PM 53.6 °F - 35.6 °F 51% 30.12 in 10.0 mi NNW 18.4 mph 21.9 mph N/A   Mostly Cloudy
2:35 PM 53.6 °F - 37.4 °F 54% 30.12 in 8.0 mi NNW 18.4 mph 26.5 mph N/A   Mostly Cloudy
2:55 PM 53.6 °F - 37.4 °F 54% 30.11 in 10.0 mi NNW 17.3 mph 25.3 mph N/A   Mostly Cloudy
3:15 PM 53.6 °F - 37.4 °F 54% 30.11 in 10.0 mi NW 19.6 mph 26.5 mph N/A   Scattered Clouds
3:35 PM 55.4 °F - 35.6 °F 47% 30.10 in 10.0 mi NW 18.4 mph 27.6 mph N/A   Partly Cloudy
3:55 PM 55.4 °F - 35.6 °F 47% 30.10 in 10.0 mi NW 19.6 mph 27.6 mph N/A   Clear
4:15 PM 55.4 °F - 35.6 °F 47% 30.10 in 10.0 mi NW 20.7 mph 27.6 mph N/A   Clear
4:35 PM 53.6 °F - 37.4 °F 54% 30.09 in 10.0 mi WNW 18.4 mph 25.3 mph N/A   Clear
4:55 PM 55.4 °F - 37.4 °F 51% 30.09 in 10.0 mi NW 19.6 mph 23.0 mph N/A   Scattered Clouds
5:15 PM 53.6 °F - 35.6 °F 51% 30.09 in 10.0 mi WNW 20.7 mph 28.8 mph N/A   Mostly Cloudy
5:35 PM 53.6 °F - 35.6 °F 51% 30.09 in 10.0 mi WNW 13.8 mph 23.0 mph N/A   Partly Cloudy
5:55 PM 53.6 °F - 37.4 °F 54% 30.09 in 10.0 mi WNW 15.0 mph 21.9 mph N/A   Partly Cloudy
6:15 PM 53.6 °F - 37.4 °F 54% 30.08 in 10.0 mi NW 16.1 mph 23.0 mph N/A   Partly Cloudy
6:35 PM 51.8 °F - 37.4 °F 58% 30.08 in 10.0 mi West 17.3 mph 20.7 mph N/A   Mostly Cloudy
6:55 PM 50.0 °F - 37.4 °F 62% 30.08 in 10.0 mi WNW 13.8 mph 21.9 mph N/A   Mostly Cloudy
7:15 PM 50.0 °F - 37.4 °F 62% 30.08 in 10.0 mi West 18.4 mph 25.3 mph N/A   Partly Cloudy
7:35 PM 50.0 °F - 37.4 °F 62% 30.09 in 10.0 mi WNW 17.3 mph 25.3 mph N/A   Mostly Cloudy
7:55 PM 50.0 °F - 37.4 °F 62% 30.09 in 10.0 mi WNW 15.0 mph 23.0 mph N/A   Overcast
8:15 PM 50.0 °F - 37.4 °F 62% 30.09 in 10.0 mi WNW 13.8 mph 19.6 mph N/A   Overcast
8:35 PM 48.2 °F - 35.6 °F 62% 30.10 in 10.0 mi WNW 15.0 mph 20.7 mph N/A   Mostly Cloudy
8:55 PM 48.2 °F - 37.4 °F 66% 30.10 in 10.0 mi WNW 15.0 mph 23.0 mph N/A   Overcast
9:15 PM 48.2 °F - 37.4 °F 66% 30.10 in 10.0 mi WNW 16.1 mph 21.9 mph N/A   Overcast
9:35 PM 48.2 °F - 37.4 °F 66% 30.10 in 10.0 mi WNW 13.8 mph 23.0 mph N/A   Overcast
9:55 PM 46.4 °F 41.1 °F 37.4 °F 71% 30.10 in 10.0 mi WNW 11.5 mph 20.7 mph N/A   Mostly Cloudy
10:15 PM 46.4 °F 41.1 °F 37.4 °F 71% 30.11 in 10.0 mi WNW 11.5 mph 17.3 mph N/A   Mostly Cloudy
10:35 PM 46.4 °F 41.9 °F 37.4 °F 71% 30.12 in 10.0 mi WNW 9.2 mph - N/A   Mostly Cloudy
10:55 PM 46.4 °F 41.1 °F 37.4 °F 71% 30.12 in 10.0 mi WNW 11.5 mph - N/A   Mostly Cloudy
11:15 PM 46.4 °F 40.1 °F 37.4 °F 71% 30.11 in 10.0 mi WNW 15.0 mph - N/A   Mostly Cloudy
11:35 PM 44.6 °F 38.4 °F 37.4 °F 76% 30.11 in 10.0 mi WNW 12.7 mph - N/A   Partly Cloudy
11:55 PM 44.6 °F 37.8 °F 39.2 °F 81% 30.11 in 10.0 mi WNW 15.0 mph 18.4 mph N/A   Partly Cloudy